Zurück zum Katalog

USA 554

AktivMilitärGEO
NORAD 65161·PAYLOAD·🇺🇸 United States

Gestartet Aug 13, 2025 von Cape Canaveral Space Force Station

Loading…

TLE

VeraltetSource: Mike McCants

Epoche: Dec 25, 2025, 20:13 UTC

1 65161U 25173B   25359.84271250 0.00000000  00000-0  00000-0 0    03
2 65161   2.8470  33.8717 0008930 181.1439 178.8561  0.98975314    00

Verfolge USA 554 in Echtzeit mit AllMySat

Download on the App Store